Regional Weather Roundup
Issued by NWS Upton, NY

Current Version | Previous Version | Text Only | Print | Product List | Glossary On
Versions: 1 2 3 4 5 6 7 8 9 10 11 12 13 14 15 16 17 18 19 20 21 22 23 24 25 26 27 28 29 30 31 32 33 34 35 36 37 38 39 40 41 42 43 44 45 46 47 48 49 50
000
ASUS41 KOKX 020808
RWROKX

REGIONAL WEATHER ROUNDUP
NATIONAL WEATHER SERVICE NEW YORK NY
400 AM EDT THU JUL 02 2015

NOTE: "FAIR" INDICATES FEW OR NO CLOUDS BELOW 12,000 FEET WITH NO
SIGNIFICANT WEATHER AND/OR OBSTRUCTIONS TO VISIBILITY.

NYZ071-072-176-178-NJZ106-104-020900-
NEW YORK CITY METRO AREA


CITY           SKY/WX    TMP DP  RH WIND       PRES   REMARKS
CENTRAL PARK   CLEAR     72  57  59 CALM      29.90S
LAGUARDIA APRT CLEAR     71  60  68 NW3       29.86F
KENNEDY INTL   PTCLDY    73  59  61 NW6       29.87S
NEWARK/LIBERTY PTCLDY    69  60  73 CALM      29.87S
BRNX BOT. GARD   N/A     66  59  77 N2        29.89R
TETERBORO      CLEAR     66  59  78 CALM      29.86S
$$

NYZ177-179-078>081-020900-
LONG ISLAND NEW YORK

CITY           SKY/WX    TMP DP  RH WIND       PRES   REMARKS
FARMINGDALE    CLEAR     70  60  70 CALM      29.86F
ISLIP          CLEAR     65  58  78 CALM      29.85S
SHIRLEY        CLEAR     62  59  90 CALM      29.87S FOG
WESTHAMPTON    CLEAR     58  58 100 CALM      29.88S FOG
MONTAUK POINT    N/A     66  60  81 SW3       29.87S
$$

NYZ052-065-067-020900-
HUDSON VALLEY

CITY           SKY/WX    TMP DP  RH WIND       PRES   REMARKS
WHITE PLAINS   CLEAR     62  58  86 CALM      29.86F
NEWBURGH       CLEAR     61  59  94 CALM      29.88F
MONTGOMERY     CLEAR     58  56  93 CALM      29.87F
POUGHKEEPSIE   CLEAR     60  57  89 SE6       29.86S
ALBANY         PTCLDY    63  56  78 SW8       29.87R
$$

NJZ001-105-106-008-010-013-015-019>022-104-020900-
NEW JERSEY

CITY           SKY/WX    TMP DP  RH WIND       PRES   REMARKS
NEWARK/LIBERTY PTCLDY    69  60  73 CALM      29.87S
TETERBORO      CLEAR     66  59  78 CALM      29.86S
CALDWELL       CLEAR     63  59  87 CALM      29.88S
MORRISTOWN     CLEAR     61  59  94 CALM      29.88  FOG
SOMERVILLE     CLEAR     61  58  90 CALM      29.86F FOG
SUSSEX         MOCLDY    58  56  93 CALM      29.89F FOG
ANDOVER          N/A     59  58  96 CALM      29.90S
TRENTON        CLEAR     64  59  83 NW6       29.87F
MILLVILLE      PTCLDY    67  66  97 CALM      29.88S FOG
ATLANTIC CITY  PTCLDY    69  68  96 CALM      29.88F FOG
WRIGHTSTOWN    CLEAR     62  62  98 CALM      29.86S
TOMS RIVER     CLEAR     63  59  88 CALM      29.88S
BELMAR         CLEAR     64  57  77 CALM      29.87F
$$

PAZ047>061-062-071-020900-
EASTERN PENNSYLVANIA

CITY           SKY/WX    TMP DP  RH WIND       PRES   REMARKS
PHILADELPHIA   CLEAR     71  60  68 CALM      29.88F
ALLENTOWN      CLEAR     61  58  90 CALM      29.89S FOG
SCRANTON       CLEAR     59  55  87 CALM      29.91F
$$

CTZ002-004>006-009-010-012-RIZ004-006-007-MAZ004-011-015-020900-
SOUTHERN NEW ENGLAND
 IN CT

CITY           SKY/WX    TMP DP  RH WIND       PRES   REMARKS
BRADLEY INTL   CLEAR     59  56  89 N3        29.84F
HARTFORD       CLEAR     63  60  90 SE9       29.85S
DANBURY        CLEAR     60  55  83 CALM      29.88F
WTRBRY/OXFORD  CLEAR     61  54  77 CALM      29.88S
BRIDGEPORT     CLEAR     70  59  68 SW3       29.86S
MERIDEN        CLEAR     61  58  90 CALM      29.85S
NEW HAVEN      CLEAR     64  59  83 CALM      29.85S
CHESTER        FAIR      66  59  77 NW3       29.86F
GROTON         CLEAR     62  60  93 CALM      29.85S FOG
WILLIMANTIC    PTCLDY    61  58  90 CALM      29.85F

 IN RI

CITY           SKY/WX    TMP DP  RH WIND       PRES   REMARKS
PROVIDENCE     CLEAR     65  58  78 NW7       29.84F
BLOCK ISLAND   CLEAR     64  61  88 CALM      29.86S
WESTERLY       CLEAR     62  60  93 CALM      29.86R

 IN MA

CITY           SKY/WX    TMP DP  RH WIND       PRES   REMARKS
BOSTON         CLEAR     65  58  78 W10       29.82S
WORCESTER      CLEAR     62  55  77 W10       29.86S
WESTFIELD      CLEAR     65  56  72 VRB7      29.85F
PROVINCETOWN   CLEAR     61   5  11 SW10      29.84R
NANTUCKET      PTCLDY    63  61  93 SW6       29.86R FOG
$$

ANZ330-335-338-340-345-350-353-355-020900-
COASTAL MARINE OBSERVATIONS


STATION/POSITION TIME  SKY/WX   TEMP    WIND        PRES    VSBY  WAVE
                                AIR SEA DIR/SP/G                  HT/PER
                 (UTC)          (F)     (DEG/KT/KT) (MB)    (MI)  (FT/S)
NY HARB ENTRANCE 0750            71 71  290/  6/  6 1010.9          4/ 7
4S FIRE IS       0703               69                N/A           4/ 8
20S FIRE ISLAND  0750            70 67  260/  8/  8 1011.0          4/ 8
GREAT SOUTH BAY  0700            73 74  330/  6/  8   N/A
23SW MTP         0750            68 66  250/  6/  8 1011.0          5/ 7
HUDSON CANYON    NOT AVBL
KINGS POINT      0700            71 66   CALM  /  2 1010.7
CENTRAL LI SOUND NOT AVBL
EASTERN LI SOUND 0700            65 63  230/  4/  4   N/A
ROBBINS REEF     0700            72     310/  4/  5 1010.4
$$


>>>>>>>>>>>>>>>>>>>>>>>>>>>> KEY <<<<<<<<<<<<<<<<<<<<<<<<<<<
>                                                          <
>     SKY/WX - SKY CONDITION/PRESENT WEATHER               <
>     TMP    - TEMPERATURE IN FAHRENHEIT                   <
>     DP     - DEWPOINT IN FAHRENHEIT                      <
>     RH     - RELATIVE HUMIDITY IN PERCENT                <
>     WIND   - DIRECTION AND SPEED IN MPH                  <
>     PRES   - MEAN SEA LEVEL PRESSURE IN INCHES OF HG     <
>     WCI    - WIND CHILL INDEX                            <
>     VSB    - VISIBILITY IN MILES                         <
>     HX     - HEAT INDEX                                  <
>     TC     - TEMPERATURE IN CELSIUS                      <
>     VRB    - VARIABLE WIND DIRECTION                     <
>                                                          <
>>>>>>>>>>>>>>>>>>>>>>>>>>>> KEY <<<<<<<<<<<<<<<<<<<<<<<<<<<





USA.gov is the U.S. government's official web portal to all federal, state and local government web resources and services.